TKSAT-1 (TUPAC KATARI)

Last updated on Tue Oct 21 2025 00:02:52 GMT+0000 (Coordinated Universal Time)

1 39481U 13075A 25293.60575167 .00000000 00000+0 00000+0 0 9997 2 39481 0.0148 72.0560 0002273 142.5145 305.6025 1.00270813 43196
UTC large
Height (km)
Speed (km/s)
/
Latitude / Longitude
Inclination (degrees)
Orbital Period (minutes)
Azimuth
Elevation
Range (km)
Doppler Factor

Next 0 passes for location: London (51.5072 / 0.1276)

Sorry there are no passes over London.